Temperature
17 17 17 17 17 17 17 17 17 17 17 17 17 18 17 17 18 18 18 18 18 18 18 18 18 18 18 18 18 18 18 18 18 18 18 18 18 18 18 18 18 18 18
17 17 17 17 17 17 17 17 17 17 17 17 17 17 17 17 17 17 17 17 18 18 18 18 18 18 18 18 18 18 18 18 18 18 18 18 18 18 18 18 18 18 18
17 17 17 17 17 17 17 17 17 17 17 17 17 17 17 17 17 17 17 17 17 17 18 18 17 17 17 17 17 18 18 18 17 17 18 18 18 18 18 18 18 18 18
17 17 17 17 17 17 17 17 17 17 17 17 17 17 17 17 17 17 17 17 17 17 17 17 17 17 17 17 17 17 17 17 17 17 18 18 17 18 18 18 18 17 17
17 17 17 17 17 17 17 16 16 16 16 17 17 17 17 17 17 17 17 17 17 17 17 17 17 17 17 17 17 17 17 17 17 17 17 17 17 17 17 17 17 17 17
17 17 17 17 16 16 16 16 16 16 16 16 16 16 17 17 17 17 17 17 17 17 17 17 17 17 17 17 17 17 17 17 17 17 17 17 17 17 17 17 17 17 17
17 17 17 16 16 16 16 16 16 16 16 16 16 16 16 16 16 16 16 17 17 17 17 16 17 17 17 17 17 17 17 17 17 17 17 17 17 17 17 17 17 17 17
17 17 17 16 16 16 16 16 16 16 16 16 16 16 16 16 16 16 16 16 16 16 16 16 16 16 16 16 16 16 16 16 17 17 17 17 17 16 17 17 17 17 17
17 17 17 16 16 16 16 16 16 16 16 16 16 16 16 16 16 16 16 16 16 16 16 16 16 16 16 16 16 16 16 16 16 16 16 16 16 16 16 16 16 16 16
17 17 17 16 16 16 16 16 16 16 16 16 16 16 16 16 16 16 16 16 16 16 16 16 16 16 16 16 16 16 16 16 16 16 16 16 16 16 16 16 16 16 16
17 17 17 17 16 16 16 16 16 16 16 16 16 16 16 16 16 16 16 16 16 16 16 16 16 16 16 16 16 16 16 16 16 16 16 16 16 16 16 16 16 16 16
17 17 17 17 16 16 16 16 16 16 16 16 16 16 16 16 16 16 16 16 16 16 16 16 16 16 16 16 16 16 16 16 16 16 16 16 16 16 16 15 15 15 15
17 17 17 17 17 16 16 16 16 16 16 16 16 16 16 16 16 16 16 16 16 16 16 16 16 16 16 16 16 16 16 16 15 15 15 15 15 15 15 15 15 15 15
17 17 17 17 17 16 16 16 16 16 16 16 16 16 16 16 16 16 16 15 15 15 15 16 15 15 15 15 15 15 15 15 15 15 15 15 15 15 15 15 15 15 15
17 17 17 17 17 16 16 16 16 16 16 16 16 16 15 15 15 15 15 15 15 15 15 15 15 15 15 15 15 15 15 15 15 15 15 15 15 15 15 15 15 15 15
18 17 17 17 17 16 16 16 16 16 16 16 16 16 15 15 15 15 15 15 15 15 15 15 15 15 15 15 15 15 15 15 15 15 15 15 15 15 15 15 14 14 14
18 17 17 17 17 16 16 16 16 16 16 16 16 15 15 15 15 15 15 15 15 15 15 15 15 15 15 15 15 15 15 15 14 14 14 14 14 14 14 14 14 14 14
18 18 17 17 17 16 16 16 16 16 16 16 15 15 15 15 15 15 15 15 15 15 15 15 15 15 15 15 15 14 14 14 14 14 14 14 14 14 14 14 14 14 14
18 18 17 17 17 16 16 16 16 16 15 15 15 15 15 15 15 15 15 15 15 15 15 15 15 15 14 14 14 14 14 14 14 14 14 14 14 14 14 14 14 14 14
18 18 17 17 17 16 16 16 16 15 15 15 15 15 15 15 15 15 15 15 15 15 15 15 14 14 14 14 14 14 14 14 14 14 14 14 14 14 14 14 14 14 14
18 18 17 17 17 16 16 16 16 15 15 15 15 15 15 15 15 15 15 15 15 15 15 14 14 14 14 14 14 14 13 13 14 14 13 13 13 13 14 14 14 14 14
18 18 17 17 17 16 16 16 16 15 15 15 15 15 15 15 15 15 15 15 14 14 14 14 14 14 14 14 14 14 13 13 13 13 13 13 13 13 13 13 13 13 13
18 18 17 17 17 16 16 16 15 15 15 15 15 15 15 15 15 14 14 14 14 14 14 14 14 14 14 14 14 13 13 13 13 13 13 13 13 13 13 13 13 13 13
18 18 17 17 17 16 16 16 16 15 15 15 15 15 15 15 15 14 14 14 14 14 14 14 14 14 14 14 14 13 13 13 13 13 13 13 13 13 13 13 13 13 13
18 18 17 17 16 16 16 16 15 15 15 15 15 15 15 15 15 14 14 14 14 14 14 14 14 14 14 13 13 14 14 13 13 13 13 13 13 13 13 13 13 13 13
18 18 17 17 16 16 16 16 15 15 15 15 15 15 15 15 15 14 14 14 14 14 14 14 14 14 14 14 13 13 13 13 13 13 13 13 13 13 13 13 13 13 13
Wind_Speed
3 5 5 3 5 7 7 7 7 8 8 8 8 8 9 9 9 9 9 8 8 8 7 7 8 10 10 10 10 10 10 10 10 10 10 10 9 9 9 8 8 6 6
2 4 3 3 5 7 7 8 8 8 9 8 8 8 9 9 9 9 9 9 9 9 9 9 10 11 11 10 10 10 11 11 11 11 10 9 9 9 8 8 7 6 6
1 3 3 4 5 6 7 8 8 9 8 8 8 8 9 8 9 9 10 10 10 10 10 10 11 11 11 11 10 11 11 12 11 11 10 9 8 8 8 7 7 7 6
1 2 3 4 5 6 7 7 8 9 8 8 9 9 9 8 9 9 10 10 10 11 11 11 12 12 12 11 11 11 11 12 11 10 9 8 7 8 8 8 7 7 7
2 2 2 5 6 6 7 7 7 8 8 8 9 9 9 8 8 9 10 10 10 10 10 11 12 11 11 12 11 11 12 11 10 8 7 7 6 7 8 8 8 8 8
2 2 3 4 5 6 6 7 7 7 7 8 9 9 9 8 8 8 9 9 9 10 10 11 11 11 12 12 11 11 11 10 9 8 6 6 5 7 8 8 8 8 8
2 2 3 4 4 5 6 6 7 7 7 8 9 9 9 9 9 9 8 9 9 10 10 11 11 11 12 12 12 12 11 10 9 8 6 5 5 7 8 8 8 8 8
2 3 4 4 4 4 5 5 6 7 7 8 9 9 9 9 9 9 8 9 9 9 10 11 11 12 11 12 12 12 11 9 8 7 6 6 6 7 8 8 8 8 8
3 3 4 5 5 4 4 5 5 6 7 7 8 8 8 9 9 9 9 9 9 9 10 11 11 11 11 11 12 12 11 11 8 6 6 6 7 7 8 8 8 9 8
3 3 3 4 5 5 5 5 6 6 7 7 8 9 9 9 10 9 9 9 9 9 10 10 11 11 11 11 12 12 11 10 8 7 6 7 8 8 9 8 8 8 8
2 2 2 2 3 3 4 5 6 7 8 8 8 9 9 9 9 8 9 9 9 10 10 11 11 12 12 11 12 12 11 8 8 7 6 7 8 8 8 8 8 8 7
1 1 1 1 1 2 3 5 6 6 7 7 7 8 8 8 8 8 9 10 10 10 11 11 11 11 10 9 10 10 9 9 8 7 7 8 8 8 8 7 7 7 7
1 0 0 0 1 2 2 4 4 5 6 6 6 6 7 7 7 7 7 8 9 9 9 10 10 9 9 8 7 8 9 8 8 7 8 9 8 8 8 8 7 6 6
2 1 1 1 2 2 3 3 3 4 4 4 4 5 5 4 4 5 5 6 6 6 6 7 6 8 9 9 8 8 8 7 7 8 9 10 9 9 8 8 7 6 6
2 1 1 2 2 2 3 2 3 3 3 3 4 4 5 4 3 4 4 5 6 6 5 5 6 7 7 7 8 8 7 8 8 8 9 10 10 9 8 8 7 7 7
2 2 2 3 2 3 2 2 2 3 3 3 4 4 5 5 4 3 4 4 5 5 6 6 6 5 5 6 6 7 7 7 8 8 8 9 11 10 9 9 8 8 8
3 3 3 3 3 3 2 2 3 3 3 3 3 4 4 5 5 4 3 3 4 6 7 7 7 6 5 5 6 6 6 7 7 8 9 9 9 11 11 10 10 10 9
3 4 3 3 4 3 3 3 3 3 3 3 3 4 4 5 5 5 3 3 4 6 6 5 4 5 5 5 5 5 5 6 7 7 8 9 9 9 11 12 11 10 10
4 4 3 3 4 3 3 3 4 4 4 3 4 4 4 5 5 5 3 3 5 5 4 4 4 4 4 4 4 5 5 5 5 7 7 8 9 9 9 10 11 10 10
4 4 4 4 3 3 3 3 3 4 3 3 3 4 4 5 5 5 4 4 4 4 4 4 5 4 3 4 5 5 5 4 5 5 6 7 9 9 10 9 9 9 11
4 4 4 4 3 3 2 2 2 2 2 2 3 4 4 4 4 4 3 3 3 3 3 4 4 4 3 2 3 4 4 4 5 4 5 5 7 8 10 9 9 9 9
4 4 3 3 3 3 2 2 1 2 1 1 2 3 3 3 3 3 3 2 3 3 4 3 3 3 1 1 2 2 2 3 4 5 4 4 5 7 8 9 9 9 9
4 4 4 3 3 3 3 3 3 3 3 2 2 2 2 2 2 3 3 3 2 3 3 2 3 3 2 0 1 2 2 0 1 3 4 4 4 4 5 7 8 8 8
5 4 4 4 3 3 3 3 3 2 1 1 0 0 1 2 2 2 3 3 3 2 2 2 2 2 3 1 1 1 1 3 2 1 3 3 4 4 4 5 6 7 8
5 5 4 4 3 2 3 3 3 2 1 0 1 1 2 2 2 1 2 2 2 2 2 2 2 2 2 2 2 1 2 2 2 2 0 2 3 3 3 3 4 5 6
4 4 4 3 2 2 2 3 3 3 2 1 1 0 1 1 1 1 1 1 2 2 2 2 2 2 1 2 2 2 2 2 2 2 2 1 1 2 2 3 3 4 5
Wind_Direction
309 314 331 37 67 72 68 71 73 79 79 81 85 92 95 96 92 90 88 86 88 83 79 84 100 111 109 107 105 105 104 101 101 101 100 101 103 104 100 95 91 85 91
289 319 344 49 69 74 71 71 72 77 77 78 81 87 92 93 90 90 87 83 84 81 77 81 96 104 107 106 103 103 104 100 96 92 89 87 91 97 95 92 93 93 90
344 341 14 50 71 76 75 74 73 75 76 73 74 78 84 90 89 89 86 82 80 77 74 80 90 97 99 100 101 102 104 99 93 88 78 68 76 89 89 87 88 87 87
40 31 30 63 78 79 77 77 78 77 79 78 77 77 81 86 88 85 86 82 80 76 74 78 84 90 94 94 96 100 101 99 93 86 72 64 66 80 80 80 82 82 78
53 51 53 77 80 80 80 77 82 78 76 79 79 78 81 83 86 86 87 84 82 81 79 80 82 85 88 89 91 96 98 95 92 81 71 65 65 78 76 75 73 75 74
57 47 65 78 81 83 81 76 78 79 75 77 76 75 77 76 79 83 87 88 84 81 80 81 82 82 83 86 88 90 91 89 84 78 67 63 66 76 78 75 70 70 70
57 43 63 79 84 86 88 80 73 73 71 76 73 71 71 74 74 74 83 87 86 84 80 79 80 80 80 80 82 83 83 85 78 76 71 67 74 80 79 78 73 71 68
73 51 47 63 78 85 91 86 79 72 76 76 71 69 67 70 72 71 73 80 85 86 83 78 77 78 79 80 80 80 78 78 73 71 69 66 73 77 78 76 72 69 66
58 51 39 41 49 61 80 78 73 68 69 70 69 68 63 63 65 64 65 72 78 80 79 76 76 77 77 78 79 80 78 73 67 63 67 64 74 77 75 73 70 68 63
42 38 33 34 44 44 46 60 61 62 62 64 65 64 59 56 59 59 59 62 66 69 71 70 71 72 74 78 78 78 76 67 60 55 54 70 74 74 74 69 67 67 64
37 20 19 25 29 39 41 51 52 55 56 57 56 57 52 47 47 52 54 59 63 62 63 64 69 69 70 72 75 73 68 61 57 51 55 71 73 72 70 71 68 64 62
332 339 12 1 16 37 50 51 46 50 52 57 56 53 51 50 48 52 51 54 59 59 58 60 65 69 66 63 66 66 62 57 53 46 53 64 66 67 68 68 71 65 60
217 262 208 237 63 64 55 57 50 49 53 56 55 59 61 55 49 48 46 45 48 54 54 55 59 63 66 65 63 63 62 59 51 44 45 56 61 63 62 61 61 63 60
143 188 189 102 75 63 68 65 55 52 50 49 50 64 72 65 55 50 50 44 49 54 58 57 64 71 69 64 64 64 61 58 50 43 41 46 53 57 59 59 56 57 58
148 163 147 109 91 75 72 63 65 56 56 57 57 63 81 82 68 60 55 53 52 56 63 65 70 72 71 66 63 63 58 55 51 46 36 38 41 45 51 55 51 56 58
161 155 133 123 118 103 85 77 72 66 61 63 64 74 90 91 83 74 65 57 54 60 67 74 77 76 71 68 58 56 57 57 52 47 41 33 35 39 44 51 50 56 56
156 146 140 140 109 99 88 86 89 84 77 69 66 84 97 101 97 89 78 66 62 71 78 80 73 75 73 64 53 49 51 51 50 46 42 37 33 36 45 51 50 52 51
134 133 139 135 112 103 95 85 81 82 75 63 67 81 90 99 103 93 85 76 79 79 81 83 77 74 67 62 53 42 42 45 45 47 47 42 40 37 41 44 44 44 43
145 136 129 112 112 110 95 82 74 70 63 58 67 77 84 92 98 95 88 83 88 83 79 90 76 85 81 71 65 51 39 37 34 44 45 40 39 38 37 37 37 37 38
138 128 121 107 107 99 84 74 59 53 43 45 53 67 80 86 96 98 90 85 91 89 79 84 86 74 81 79 75 58 42 38 39 39 40 41 40 39 38 36 34 32 34
122 122 128 126 125 110 92 92 81 56 28 26 36 56 71 86 99 103 98 89 91 94 101 104 99 87 74 79 76 50 31 35 41 35 36 40 35 33 36 35 34 34 30
150 146 143 145 146 144 128 120 122 114 75 36 23 51 63 83 99 111 113 113 111 107 102 107 114 109 94 68 99 90 31 9 20 26 29 39 32 33 33 31 34 36 35
163 168 167 162 155 145 122 100 81 64 45 29 22 25 25 59 89 102 117 119 120 125 135 138 139 138 149 60 84 128 126 205 342 3 21 30 27 28 21 25 31 31 31
183 173 160 157 150 143 132 127 123 120 132 230 256 353 16 46 76 107 126 130 130 130 135 154 142 146 143 153 77 75 134 152 142 3 354 12 24 30 17 19 24 27 29
170 165 162 150 142 138 141 143 129 120 150 109 64 52 36 29 40 83 131 134 136 137 144 148 143 153 157 166 168 148 107 85 107 147 304 342 7 13 10 7 18 24 24
153 153 153 149 156 159 150 145 151 154 151 125 95 80 18 12 9 25 140 153 166 167 172 182 165 161 168 167 175 172 166 162 170 152 171 241 335 338 355 0 12 15 21
Height
1520 1519 1519 1518 1518 1518 1517 1517 1517 1517 1517 1517 1517 1517 1517 1517 1517 1517 1517 1517 1516 1516 1515 1512 1511 1514 1517 1519 1521 1522 1524 1525 1526 1527 1528 1528 1529 1530 1530 1531 1531 1531 1532
1521 1520 1519 1519 1519 1518 1518 1518 1518 1518 1518 1518 1518 1518 1518 1518 1518 1518 1518 1517 1517 1517 1515 1512 1511 1515 1518 1520 1522 1523 1525 1526 1527 1528 1529 1530 1530 1531 1531 1532 1532 1532 1532
1521 1521 1520 1520 1519 1519 1519 1519 1519 1519 1519 1519 1519 1519 1519 1519 1519 1519 1519 1519 1518 1518 1517 1516 1515 1517 1520 1522 1523 1524 1526 1527 1528 1529 1530 1530 1531 1532 1532 1532 1532 1533 1533
1522 1522 1521 1521 1521 1520 1520 1520 1520 1520 1520 1520 1520 1520 1520 1520 1520 1520 1520 1520 1520 1520 1520 1519 1519 1520 1522 1523 1524 1526 1527 1528 1529 1530 1531 1531 1532 1532 1533 1533 1533 1533 1534
1523 1523 1522 1522 1522 1522 1521 1521 1521 1521 1521 1521 1521 1521 1521 1521 1521 1521 1521 1521 1522 1522 1522 1522 1522 1523 1524 1525 1526 1527 1528 1529 1530 1531 1531 1532 1533 1533 1533 1534 1534 1534 1534
1524 1524 1524 1523 1523 1523 1523 1523 1522 1523 1523 1523 1523 1523 1523 1523 1523 1523 1523 1523 1523 1524 1523 1524 1524 1525 1526 1526 1527 1528 1529 1530 1531 1531 1532 1533 1533 1534 1534 1534 1534 1535 1535
1526 1525 1525 1525 1525 1524 1524 1524 1524 1524 1524 1524 1524 1524 1524 1524 1524 1525 1525 1525 1525 1525 1525 1525 1526 1527 1527 1528 1529 1529 1530 1531 1532 1532 1533 1534 1534 1535 1535 1535 1535 1535 1535
1527 1527 1527 1526 1526 1526 1526 1526 1526 1526 1526 1526 1526 1526 1526 1526 1526 1526 1526 1527 1527 1527 1528 1528 1528 1529 1529 1529 1530 1531 1532 1532 1533 1533 1534 1534 1535 1535 1535 1535 1535 1535 1535
1529 1529 1528 1528 1528 1528 1528 1528 1528 1528 1528 1528 1528 1528 1528 1528 1528 1528 1528 1528 1529 1529 1529 1530 1530 1531 1531 1531 1532 1532 1533 1533 1534 1534 1535 1535 1536 1536 1536 1536 1536 1536 1536
1531 1531 1530 1530 1530 1530 1529 1530 1530 1530 1530 1530 1530 1530 1530 1530 1530 1530 1530 1530 1530 1530 1531 1531 1531 1532 1532 1533 1533 1533 1534 1534 1535 1535 1536 1536 1536 1536 1536 1536 1536 1536 1536
1532 1532 1532 1532 1532 1532 1531 1531 1532 1532 1532 1532 1532 1531 1531 1531 1531 1532 1532 1532 1532 1532 1532 1533 1533 1533 1534 1534 1535 1535 1535 1536 1536 1537 1537 1537 1537 1537 1536 1536 1536 1536 1536
1534 1534 1534 1534 1533 1533 1533 1533 1534 1534 1534 1534 1534 1533 1533 1533 1533 1533 1533 1533 1534 1534 1533 1534 1534 1535 1535 1535 1536 1536 1537 1537 1537 1538 1538 1537 1537 1537 1537 1537 1536 1536 1536
1535 1535 1535 1535 1535 1535 1535 1535 1535 1536 1536 1536 1535 1535 1535 1535 1535 1535 1535 1535 1535 1535 1535 1535 1536 1536 1537 1537 1537 1538 1538 1538 1538 1538 1538 1538 1538 1538 1538 1537 1537 1537 1536
1536 1536 1536 1536 1536 1536 1536 1537 1537 1537 1538 1537 1537 1537 1537 1537 1537 1537 1537 1537 1537 1537 1537 1537 1537 1538 1538 1539 1539 1539 1539 1539 1539 1539 1539 1539 1539 1539 1538 1538 1537 1537 1536
1537 1537 1538 1538 1538 1538 1538 1538 1538 1539 1539 1539 1539 1539 1539 1539 1538 1538 1538 1538 1538 1538 1539 1539 1539 1539 1540 1540 1540 1540 1540 1540 1540 1540 1540 1540 1540 1539 1539 1538 1538 1537 1537
1538 1539 1539 1539 1540 1540 1540 1540 1540 1540 1540 1540 1540 1540 1540 1540 1540 1540 1540 1540 1540 1540 1540 1540 1540 1540 1541 1541 1541 1541 1541 1541 1541 1541 1540 1540 1540 1540 1539 1539 1538 1538 1537
1539 1540 1540 1541 1541 1541 1541 1541 1542 1542 1542 1542 1542 1542 1542 1542 1541 1541 1541 1541 1541 1541 1541 1541 1541 1542 1542 1542 1542 1542 1542 1541 1541 1541 1541 1541 1541 1540 1540 1539 1539 1538 1537
1540 1541 1541 1542 1542 1542 1542 1543 1543 1543 1543 1543 1543 1544 1543 1543 1543 1543 1542 1542 1542 1542 1542 1542 1543 1543 1543 1542 1542 1542 1542 1542 1542 1542 1542 1541 1541 1541 1540 1540 1539 1539 1538
1541 1541 1542 1542 1543 1543 1543 1544 1544 1544 1544 1544 1544 1545 1545 1544 1544 1544 1544 1544 1544 1544 1544 1544 1544 1544 1543 1543 1543 1543 1543 1543 1543 1543 1542 1542 1542 1541 1541 1541 1540 1539 1538
1541 1542 1543 1543 1544 1544 1544 1544 1544 1545 1545 1545 1545 1546 1546 1545 1545 1545 1545 1545 1545 1545 1545 1545 1545 1545 1545 1544 1544 1544 1544 1544 1544 1543 1543 1543 1542 1542 1542 1541 1540 1540 1539
1541 1542 1543 1544 1544 1544 1545 1545 1545 1545 1545 1546 1546 1546 1546 1546 1546 1546 1546 1546 1546 1546 1546 1546 1546 1545 1545 1545 1545 1545 1545 1545 1545 1544 1544 1544 1543 1543 1542 1542 1541 1540 1540
1541 1542 1543 1544 1544 1545 1545 1546 1546 1546 1546 1547 1547 1547 1547 1547 1547 1547 1547 1547 1547 1547 1547 1546 1546 1546 1546 1546 1546 1546 1546 1547 1546 1546 1545 1545 1544 1544 1543 1543 1542 1541 1541
1541 1542 1543 1544 1545 1545 1546 1546 1546 1547 1547 1547 1547 1548 1548 1548 1548 1548 1548 1548 1547 1547 1547 1547 1547 1547 1547 1547 1547 1547 1547 1547 1547 1547 1546 1545 1545 1544 1544 1543 1543 1542 1541
1540 1542 1543 1544 1545 1546 1546 1547 1547 1547 1547 1548 1548 1548 1548 1548 1548 1548 1548 1548 1548 1548 1547 1547 1547 1547 1547 1547 1547 1547 1548 1547 1547 1547 1547 1546 1546 1545 1544 1544 1543 1542 1542
1540 1542 1543 1544 1545 1546 1546 1547 1547 1547 1548 1548 1548 1549 1549 1549 1549 1549 1549 1548 1548 1548 1548 1548 1547 1547 1547 1547 1547 1547 1547 1547 1547 1547 1547 1547 1546 1546 1545 1544 1544 1543 1542
1539 1541 1542 1544 1545 1546 1546 1547 1547 1548 1548 1548 1548 1549 1549 1549 1549 1549 1549 1549 1549 1548 1548 1548 1548 1547 1547 1547 1547 1547 1547 1547 1547 1546 1546 1546 1546 1546 1545 1545 1544 1543 1543